Location: G?julap?du
(16.5372°N, 81.0979°E)
Time: 11:50:55
(UTC+00:00)

GPS 2-12 Rocket1 - Pass Details

Date: 14 April 2026
Orbit: 560 x 613 km, 20.0° (Epoch: 21 May)

Event Time Altitude Azimuth Distance (km) Brightness Sun altitude
Exits shadow 23:51:09 10° 262° (W) 1,869 4.8 -7.8°
Reaches altitude 10° 23:51:14 10° 262° (W) 1,834 4.8 -7.7°
Maximum altitude 23:55:30 79° 349° (N) 566 2.9 -6.7°
Drops below altitude 10° 23:59:46 10° 76° (ENE) 1,829 7.4 -5.7°
Sets 00:02:03 0° 78° (ENE) 2,726 9.5 -5.2°
